Home > Time Zones > World Clock > Weather > Germany > Ulm > Past weeks

Flag for Germany Weather past 2 weeks in Ulm, Baden-Württemberg, Germany

Now
50 °F

Scattered clouds.


Feels Like: 48 °F
Forecast: 38 / 68 °F
Wind: 5 mph from Northeast

Location: Laupheim Airport

Current Time: May 27, 2015 at 10:13:14 PM

Latest Report: May 27, 2015 at 9:20 PM


Visibility: N/A

Pressure: 30.18 "Hg

Humidity: 71%

Dew point: 41 °F

Location of UlmLocation

Historic Weather in Ulm — Graph

°F

Ulm temperature yesterday

Maximum temperature yesterday: 55 °F (at 1:20 PM)
Minimum temperature yesterday: 48 °F (at 11:20 PM)
Average temperature yesterday: 51 °F

Past Weeks' High & Low Weather Summary

 TemperatureHumidityPressure
High73 °F (May 12, 8:20 PM)100% (May 15, 7:20 AM)30.30 "Hg (May 15, 7:20 AM)
Low39 °F (May 22, 4:20 AM)44% (May 18, 5:20 PM)29.77 "Hg (May 18, 5:20 PM)
Average55 °F77%30.05 "Hg
* Reported May 12 8:20 PM — May 27 8:20 PM, Ulm, Weather by CustomWeather, © 2015

Note: Actual official high and low records may vary slightly from our data, if they occured in-between our weather recording intervals... More about our weather records

Advertising

Ulm weather history for previous 24 hours

 ConditionsComfort  
Time TempWeatherWind HumidityBarometerVisibility
8:20 PM
Wed, May 27
54 °FPartly sunny.3 mph67%30.18 "HgN/A
7:20 PM55 °FScattered clouds.3 mph55%30.18 "HgN/A
6:20 PM55 °FPartly sunny.2 mph55%30.18 "HgN/A
5:20 PM55 °FPartly sunny.3 mph51%30.18 "HgN/A
4:20 PM55 °FPartly sunny.6 mph55%30.18 "HgN/A
3:20 PM55 °FPartly sunny.5 mph55%30.21 "HgN/A
2:20 PM55 °FPartly sunny.6 mph55%30.21 "HgN/A
1:20 PM52 °FPartly sunny.5 mph62%30.21 "HgN/A
12:20 PM52 °FPartly sunny.3 mph58%30.24 "HgN/A
11:20 AM52 °FBroken clouds.2 mph62%30.21 "HgN/A
10:20 AM50 °FBroken clouds.2 mph67%30.24 "HgN/A
9:20 AM50 °FScattered clouds.2 mph71%30.24 "HgN/A
8:20 AM46 °FPassing clouds.3 mph82%30.21 "HgN/A
7:20 AM43 °FScattered clouds.5 mph87%30.21 "HgN/A
6:20 AM43 °FPassing clouds.2 mph87%30.21 "HgN/A
5:20 AM43 °FPassing clouds.3 mph87%30.18 "HgN/A
4:20 AM43 °FPassing clouds.5 mph87%30.18 "HgN/A
3:20 AM45 °FPassing clouds.No wind81%30.18 "HgN/A
2:20 AM46 °FPassing clouds.2 mph82%30.18 "HgN/A
1:20 AM46 °FPassing clouds.2 mph76%30.18 "HgN/A
12:20 AM48 °FPassing clouds.1 mph76%30.18 "HgN/A
11:20 PM
Tue, May 26
48 °FPassing clouds.1 mph76%30.18 "HgN/A
10:20 PM50 °FPartly cloudy.3 mph76%30.15 "HgN/A
Weather by CustomWeather, © 2015

See weather overviewHow to use our weather pages